GW1779 Weather Reports


time (UTC)temp
F
wind
direction
speed
knots
gust
knots
rain 1hr
in
rain 24hr
in
rain mn
in
humidity
%
barometer
mb
20260508131537 58 246 5.2 10.4 0.00 0.02 0.01 56 1004.9
20260508130040 57 246 6.1 12.2 0.00 0.02 0.01 57 1004.8
20260508124538 57 246 1.7 8.7 0.00 0.02 0.01 65 1004.8
20260508123038 56 246 1.7 7.8 0.00 0.02 0.01 66 1004.8
20260508121540 55 246 1.7 7.8 0.00 0.02 0.01 71 1004.9
20260508120042 53 246 2.6 8.7 0.00 0.02 0.01 73 1004.8
20260508114548 52 246 1.7 8.7 0.00 0.02 0.01 78 1005.0
20260508113040 50 246 2.6 9.6 0.00 0.02 0.01 81 1005.0
20260508111542 47 246 3.5 8.7 0.00 0.02 0.01 83 1005.1
20260508110037 47 246 3.5 8.7 0.00 0.02 0.01 85 1004.9
20260508104536 47 246 3.5 8.7 0.00 0.02 0.01 87 1004.9
20260508103040 45 246 3.5 7.8 0.00 0.02 0.01 89 1004.8
20260508101538 45 246 2.6 8.7 0.00 0.02 0.01 89 1004.7
20260508100037 45 246 2.6 7.8 0.00 0.02 0.01 89 1004.4
20260508094553 45 246 1.7 7.0 0.00 0.02 0.01 89 1004.3
20260508093043 44 0 1.7 5.2 0.00 0.02 0.01 90 1003.9
20260508091543 43 246 1.7 7.0 0.00 0.02 0.01 90 1003.9
20260508090043 43 246 3.5 7.8 0.00 0.02 0.01 90 1003.6
20260508084538 43 246 3.5 8.7 0.00 0.02 0.01 91 1003.6
20260508083036 43 246 3.5 7.8 0.01 0.02 0.01 90 1003.6
20260508081558 44 246 3.5 9.6 0.01 0.02 0.01 90 1003.9
20260508080038 44 246 3.5 8.7 0.01 0.02 0.01 90 1003.9
20260508074538 44 246 5.2 11.3 0.01 0.02 0.01 90 1003.8
20260508073041 44 246 4.3 13.0 0.00 0.01 0.00 91 1003.8
20260508071544 43 246 4.3 12.2 0.00 0.01 0.00 91 1003.9
20260508070042 43 246 4.3 9.6 0.00 0.01 0.00 91 1003.9
20260508064538 42 246 3.5 8.7 0.00 0.01 0.00 91 1004.0
20260508063047 42 246 3.5 8.7 0.00 0.01 0.00 91 1004.1
20260508061541 43 246 3.5 8.7 0.00 0.01 0.00 90 1004.3
20260508060037 43 246 4.3 10.4 0.00 0.01 0.00 90 1004.2
20260508054539 43 246 2.6 8.7 0.00 0.01 0.00 89 1004.2
20260508053040 43 246 4.3 12.2 0.00 0.01 0.00 89 1004.2
20260508051538 44 246 3.5 8.7 0.00 0.01 0.00 89 1004.3
20260508050037 44 246 2.6 7.0 0.00 0.01 0.00 89 1004.8
20260508044535 44 246 2.6 7.0 0.00 0.01 0.00 88 1004.3
20260508043041 45 246 2.6 7.8 0.00 0.01 0.00 88 1004.7
20260508041538 45 246 1.7 7.0 0.00 0.01 0.00 88 1004.7
20260508040045 45 246 1.7 4.3 0.00 0.01 0.00 88 1005.1
20260508034537 46 246 0.9 5.2 0.00 0.01 0.00 87 1005.2
20260508033036 46 246 1.7 4.3 0.00 0.01 0.00 87 1005.3
20260508031536 47 246 1.7 5.2 0.00 0.01 0.00 87 1004.9
20260508030039 48 246 1.7 5.2 0.00 0.01 0.00 87 1004.6
20260508024547 48 246 1.7 5.2 0.00 0.01 0.01 87 1004.8
20260508023037 48 246 2.6 7.0 0.00 0.01 0.01 87 1005.0
20260508021536 49 246 1.7 5.2 0.00 0.01 0.01 88 1005.0
20260508020035 49 246 0.0 3.5 0.00 0.01 0.01 88 1005.2
20260508014545 50 0 0.9 7.8 0.00 0.01 0.01 87 1005.3
20260508013045 50 246 0.9 4.3 0.00 0.01 0.01 88 1005.4
20260508011538 50 246 1.7 5.2 0.00 0.01 0.01 88 1005.2
20260508010037 50 246 0.0 5.2 0.00 0.01 0.01 88 1005.1
20260508004536 49 246 0.0 3.5 0.00 0.01 0.01 89 1005.0
20260508003036 50 0 0.0 0.0 0.00 0.01 0.01 90 1004.9
20260508001536 50 0 0.0 0.0 0.00 0.01 0.01 89 1004.5
20260508000042 51 0 0.0 1.7 0.00 0.01 0.01 87 1004.3
20260507234538 52 246 0.9 2.6 0.00 0.01 0.01 84 1004.1
20260507233043 54 0 0.0 2.6 0.00 0.01 0.01 79 1003.8
20260507231539 55 0 0.0 5.2 0.00 0.01 0.01 75 1003.8
20260507230044 56 246 2.6 7.0 0.00 0.01 0.01 75 1003.6
20260507224542 57 0 1.7 4.3 0.00 0.01 0.01 77 1003.6
20260507223040 58 246 2.6 9.6 0.00 0.01 0.01 75 1003.5
20260507221540 59 246 2.6 7.8 0.00 0.01 0.01 75 1003.4
20260507220037 60 246 4.3 11.3 0.00 0.01 0.01 74 1003.1
20260507214541 61 246 1.7 7.8 0.00 0.01 0.01 75 1003.4
20260507213043 61 246 3.5 9.6 0.00 0.01 0.01 75 1003.6
20260507211543 62 246 5.2 11.3 0.00 0.01 0.01 77 1003.7
20260507210040 60 246 2.6 10.4 0.00 0.01 0.01 84 1003.5
20260507204537 59 246 3.5 7.8 0.00 0.01 0.01 89 1003.4
20260507203045 58 0 2.6 7.0 0.00 0.01 0.01 92 1003.6
20260507201537 57 246 2.6 7.8 0.00 0.01 0.01 97 1003.5
20260507200059 56 0 0.0 8.7 0.00 0.01 0.01 98 1003.6
20260507194542 56 0 0.0 7.0 0.00 0.01 0.01 98 1003.9
20260507193045 55 246 2.6 8.7 0.00 0.01 0.01 98 1003.8
20260507191538 54 246 1.7 4.3 0.00 0.01 0.01 98 1003.6
20260507190037 54 246 1.7 7.0 0.00 0.01 0.01 98 1003.9
20260507184539 54 246 2.6 7.0 0.00 0.01 0.01 98 1004.1
20260507183046 53 0 0.0 7.0 0.00 0.01 0.01 98 1004.0
20260507181542 53 0 0.9 5.2 0.00 0.01 0.01 98 1003.9
20260507180045 53 246 0.9 7.8 0.00 0.01 0.01 98 1004.1
20260507174539 52 246 2.6 5.2 0.00 0.01 0.01 98 1004.3
20260507173037 52 246 2.6 5.2 0.00 0.01 0.01 98 1004.1
20260507171536 51 246 1.7 5.2 0.00 0.01 0.01 98 1004.5
20260507170043 51 246 4.3 7.0 0.00 0.01 0.01 98 1003.8
20260507164556 51 246 0.9 3.5 0.00 0.01 0.01 98 1004.7
20260507163039 50 246 1.7 5.2 0.00 0.01 0.01 98 1004.5
20260507161539 50 246 1.7 3.5 0.00 0.01 0.01 98 1004.7
20260507160039 50 0 0.0 4.3 0.00 0.01 0.01 98 1004.8
20260507154540 50 246 0.9 5.2 0.00 0.01 0.01 98 1005.5
20260507153042 49 0 0.9 3.5 0.00 0.01 0.01 98 1005.1
20260507151540 49 246 2.6 7.0 0.00 0.01 0.01 98 1005.4
20260507150038 49 246 3.5 5.2 0.00 0.01 0.01 98 1005.0
20260507144537 50 246 1.7 2.6 0.00 0.01 0.01 98 1006.0
20260507143038 50 246 0.9 2.6 0.00 0.01 0.01 98 1006.2
20260507141539 50 246 0.9 7.0 0.01 0.01 0.01 98 1005.9
20260507140044 50 246 4.3 10.4 0.01 0.01 0.01 98 1006.6
20260507134541 50 246 1.7 9.6 0.01 0.02 0.01 98 1006.0
20260507133055 51 246 3.5 9.6 0.01 0.02 0.01 98 1006.4